Flag for South Africa Weather past 2 weeks in Port Elizabeth, South Africa

Now
57 °F

Sunny.


Feels Like: 55 °F
Forecast: 58 / 79 °F
Wind: 9 mph from Northeast

Location: Port Elizabeth Airport

Current Time: Sep 2, 2014 at 9:34:23 AM

Latest Report: Sep 2, 2014 at 9:00 AM


Visibility: 10 mi

Pressure: 30.18 "Hg

Humidity: 77%

Dew point: 50 °F

Location of Port ElizabethLocation

Historic Weather in Port Elizabeth — Graph

°F

Port Elizabeth temperature yesterday

Maximum temperature yesterday: 68 °F (at 12:00 PM)
Minimum temperature yesterday: 59 °F (at 12:00 AM)
Average temperature yesterday: 62 °F

Past Weeks' High & Low Weather Summary

 TemperatureHumidityPressure
High84 °F (Aug 18, 11:00 AM)94% (Aug 25, 3:00 AM)30.54 "Hg (Aug 25, 3:00 AM)
Low43 °F (Aug 31, 12:00 AM)31% (Aug 18, 11:00 AM)29.74 "Hg (Aug 27, 5:01 AM)
Average59 °F71%30.08 "Hg
* Reported Aug 18 8:01 AM — Sep 2 8:00 AM, Port Elizabeth, Weather by CustomWeather, © 2014

Note: Actual official high and low records may vary slightly from our data, if they occured in-between our weather recording intervals... More about our weather records

Advertising

Port Elizabeth weather history for previous 24 hours

 ConditionsComfort  
Time TempWeatherWind HumidityBarometerVisibility
8:00 AM
Sep 2
55 °FSunny.7 mph82%30.18 "Hg10 mi
7:00 AM52 °FSunny.7 mph88%30.18 "Hg10 mi
6:00 AM50 °FClear.3 mph88%30.18 "Hg4 mi
5:00 AM54 °FClear.5 mph88%30.18 "Hg4 mi
4:00 AM52 °FClear.5 mph94%30.18 "Hg4 mi
2:00 AM57 °FClear.7 mph88%30.18 "Hg6 mi
1:00 AM59 °FClear.8 mph82%30.21 "Hg10 mi
12:00 AM59 °FClear.8 mph82%30.21 "Hg10 mi
11:00 PM
Sep 1
59 °FClear.9 mph82%30.24 "Hg10 mi
9:00 PM61 °FClear.10 mph77%30.24 "Hg10 mi
8:00 PM63 °FClear.17 mph77%30.24 "Hg10 mi
7:00 PM63 °FClear.18 mph77%30.24 "Hg10 mi
6:00 PM63 °FClear.21 mph73%30.24 "Hg10 mi
5:00 PM64 °FClear.21 mph68%30.24 "Hg10 mi
4:00 PM66 °FSunny.20 mph64%30.24 "Hg10 mi
3:00 PM68 °FSunny.20 mph64%30.24 "Hg10 mi
2:00 PM68 °FSunny.21 mph60%30.24 "Hg10 mi
1:00 PM68 °FSunny.21 mph60%30.27 "Hg10 mi
12:00 PM68 °FSunny.17 mph60%30.30 "Hg10 mi
11:00 AM64 °FSunny.15 mph64%30.33 "Hg10 mi
10:00 AM64 °FSunny.20 mph64%30.33 "Hg10 mi
9:00 AM63 °FSunny.17 mph64%30.36 "Hg10 mi
Weather by CustomWeather, © 2014

See weather overviewHow to use our weather pages